Location: Prague
(50.0830°N, 14.4670°E)
Time: 09:44:52
(UTC+01:00)

Oscar 11 - Pass Details

Date: 02 December 2021
Orbit: 611 x 625 km, 97.6° (Epoch: 26 January)

Event Time Altitude Azimuth Distance (km) Brightness Sun altitude
Rises 05:20:36 0° 16° (NNE) 2,922 10.6 -21.5°
Reaches altitude 10° 05:22:50 10° 20° (NNE) 2,008 9.8 -21.2°
Maximum altitude 05:27:10 61° 100° (E) 712 7.6 -20.5°
Drops below altitude 10° 05:31:27 10° 182° (S) 1,985 9.8 -19.8°
Sets 05:33:39 0° 186° (S) 2,884 10.6 -19.5°
